Location: ?ern� Novina
(50.6762°N, 14.8696°E)
Time: 17:33:42
(UTC+00:00)

Meteor 1-25 Rocket - Pass Details

Date: 03 March 2021
Orbit: 835 x 893 km, 81.2° (Epoch: 13 April)

Event Time Altitude Azimuth Distance (km) Brightness Sun altitude
Rises 17:30:59 0° 186° (S) 3,471 7.5 -8.0°
Reaches altitude 10° 17:33:26 10° 185° (S) 2,529 6.8 -8.4°
Maximum altitude 17:39:11 79° 100° (E) 892 4.2 -9.3°
Drops below altitude 10° 17:44:53 10° 15° (NNE) 2,508 6.5 -10.2°
Sets 17:47:18 0° 14° (NNE) 3,440 7.3 -10.6°
